KD7KCN-5 Weather Reports


Display with metric or nautical units.
time (UTC)temp
F
wind
direction
speed
MPH
gust
MPH
rain 1hr
in
rain 24hr
in
rain mn
in
humidity
%
barometer
mb
20260510211131 84 235 1.0 9.0 0.00 0.00 0.00 10 1018.3
20260510210131 82 0 0.0 16.0 0.00 0.00 0.00 11 1018.3
20260510205133 83 155 10.0 16.0 0.00 0.00 0.00 11 1018.3
20260510204132 83 124 7.0 17.0 0.00 0.00 0.00 12 1018.4
20260510203132 83 107 14.0 19.0 0.00 0.00 0.00 11 1018.4
20260510202132 82 118 3.0 10.0 0.00 0.00 0.00 11 1018.6
20260510201132 81 135 1.0 4.0 0.00 0.00 0.00 11 1018.7
20260510200132 81 341 2.0 8.0 0.00 0.00 0.00 13 1018.7
20260510195134 81 51 3.0 14.0 0.00 0.00 0.00 11 1018.9
20260510194132 81 80 4.0 14.0 0.00 0.00 0.00 13 1019.0
20260510193133 81 128 2.0 10.0 0.00 0.00 0.00 11 1019.0
20260510192132 81 89 3.0 11.0 0.00 0.00 0.00 11 1019.1
20260510191132 82 128 6.0 13.0 0.00 0.00 0.00 12 1019.3
20260510190132 80 116 5.0 16.0 0.00 0.00 0.00 13 1019.4
20260510185132 78 181 8.0 18.0 0.00 0.00 0.00 12 1019.4
20260510184132 79 188 3.0 18.0 0.00 0.00 0.00 13 1019.6
20260510183132 80 127 11.0 15.0 0.00 0.00 0.00 12 1019.6
20260510182132 78 101 4.0 10.0 0.00 0.00 0.00 14 1019.8
20260510181132 79 92 10.0 14.0 0.00 0.00 0.00 12 1019.9
20260510174132 78 134 2.0 11.0 0.00 0.00 0.00 14 1020.0
20260510173133 77 129 1.0 11.0 0.00 0.00 0.00 12 1020.1
20260510172133 77 92 8.0 13.0 0.00 0.00 0.00 12 1020.1
20260510170132 75 47 3.0 12.0 0.00 0.00 0.00 13 1020.1
20260510164132 75 106 6.0 11.0 0.00 0.00 0.00 13 1020.1
20260510162132 75 125 10.0 19.0 0.00 0.00 0.00 13 1020.2
20260510161133 74 92 8.0 16.0 0.00 0.00 0.00 14 1020.2
20260510160132 74 64 1.0 10.0 0.00 0.00 0.00 14 1020.2
20260510155135 74 63 2.0 6.0 0.00 0.00 0.00 13 1020.3
20260510154133 73 2 1.0 9.0 0.00 0.00 0.00 15 1020.4
20260510153132 72 346 3.0 11.0 0.00 0.00 0.00 16 1020.4
20260510152133 72 355 8.0 12.0 0.00 0.00 0.00 16 1020.5
20260510151132 71 345 6.0 11.0 0.00 0.00 0.00 17 1020.5
20260510150132 71 354 3.0 11.0 0.00 0.00 0.00 17 1020.5
20260510145133 69 344 5.0 12.0 0.00 0.00 0.00 16 1020.4
20260510144133 68 335 5.0 13.0 0.00 0.00 0.00 17 1020.4
20260510143132 68 338 8.0 14.0 0.00 0.00 0.00 16 1020.4
20260510142133 67 340 5.0 15.0 0.00 0.00 0.00 16 1020.4
20260510141133 66 344 8.0 16.0 0.00 0.00 0.00 18 1020.3
20260510140132 65 337 9.0 16.0 0.00 0.00 0.00 17 1020.3
20260510135132 64 339 10.0 15.0 0.00 0.00 0.00 16 1020.3
20260510134133 63 330 5.0 10.0 0.00 0.00 0.00 16 1020.0
20260510133134 63 0 0.0 10.0 0.00 0.00 0.00 16 1020.0
20260510131132 61 339 7.0 16.0 0.00 0.00 0.00 16 1019.6
20260510130132 60 336 6.0 14.0 0.00 0.00 0.00 15 1019.6
20260510125133 59 343 8.0 16.0 0.00 0.00 0.00 16 1019.5
20260510124133 59 336 7.0 15.0 0.00 0.00 0.00 15 1019.3
20260510123133 60 340 6.0 16.0 0.00 0.00 0.00 15 1019.1
20260510122133 60 335 10.0 19.0 0.00 0.00 0.00 15 1019.3
20260510121133 60 332 10.0 21.0 0.00 0.00 0.00 15 1019.1
20260510120133 60 316 12.0 20.0 0.00 0.00 0.00 14 1018.9
20260510115133 60 330 15.0 22.0 0.00 0.00 0.00 14 1018.9
20260510114133 60 330 15.0 22.0 0.00 0.00 0.00 14 1018.7
20260510113135 60 257 15.0 19.0 0.00 0.00 0.00 14 1018.6
20260510112136 60 260 13.0 19.0 0.00 0.00 0.00 14 1018.6
20260510105134 60 355 10.0 17.0 0.00 0.00 0.00 14 1018.4
20260510104133 60 262 10.0 18.0 0.00 0.00 0.00 14 1018.2
20260510103134 60 333 8.0 17.0 0.00 0.00 0.00 14 1018.1
20260510102133 61 339 9.0 24.0 0.00 0.00 0.00 14 1018.1
20260510101133 61 329 12.0 20.0 0.00 0.00 0.00 14 1018.0
20260510100133 61 339 11.0 20.0 0.00 0.00 0.00 13 1018.0
20260510095133 61 337 10.0 22.0 0.00 0.00 0.00 13 1017.9
20260510094133 61 340 9.0 18.0 0.00 0.00 0.00 13 1017.8
20260510092134 61 332 12.0 21.0 0.00 0.00 0.00 13 1017.6
20260510091133 61 331 12.0 17.0 0.00 0.00 0.00 13 1017.5
20260510090133 61 338 9.0 19.0 0.00 0.00 0.00 13 1017.4
20260510085133 61 340 9.0 17.0 0.00 0.00 0.00 13 1017.4
20260510084133 62 338 11.0 18.0 0.00 0.00 0.00 13 1018.2
20260510083134 62 342 13.0 18.0 0.00 0.00 0.00 13 1018.1
20260510082134 63 338 12.0 22.0 0.00 0.00 0.00 13 1018.2
20260510081134 63 345 13.0 20.0 0.00 0.00 0.00 13 1018.3
20260510080133 63 345 12.0 20.0 0.00 0.00 0.00 13 1018.3
20260510075133 63 343 12.0 18.0 0.00 0.00 0.00 13 1018.2
20260510074133 63 342 12.0 21.0 0.00 0.00 0.00 13 1018.2
20260510073133 63 335 11.0 20.0 0.00 0.00 0.00 14 1018.1
20260510072133 63 338 10.0 20.0 0.00 0.00 0.00 14 1017.9
20260510071134 63 346 11.0 25.0 0.00 0.00 0.00 14 1017.9
20260510070134 64 349 10.0 23.0 0.00 0.00 0.00 15 1017.7
20260510065133 64 351 14.0 30.0 0.00 0.00 0.00 15 1017.4
20260510064133 65 345 13.0 25.0 0.00 0.00 0.00 15 1017.4
20260510063133 65 349 17.0 30.0 0.00 0.00 0.00 15 1017.0
20260510062133 66 352 15.0 26.0 0.00 0.00 0.00 16 1016.9
20260510061134 66 2 16.0 28.0 0.00 0.00 0.00 16 1016.7
20260510060134 66 357 15.0 27.0 0.00 0.00 0.00 16 1016.6
20260510055134 66 3 16.0 25.0 0.00 0.00 0.00 17 1016.5
20260510054134 66 357 16.0 23.0 0.00 0.00 0.00 17 1016.4
20260510053133 66 355 13.0 23.0 0.00 0.00 0.00 18 1016.4
20260510052134 66 354 11.0 18.0 0.00 0.00 0.00 18 1016.4
20260510051134 66 7 12.0 17.0 0.00 0.00 0.00 19 1016.4
20260510050134 66 347 8.0 16.0 0.00 0.00 0.00 19 1016.5
20260510045134 67 334 6.0 19.0 0.00 0.00 0.00 19 1016.4
20260510044134 67 334 8.0 14.0 0.00 0.00 0.00 19 1016.4
20260510043134 68 332 8.0 13.0 0.00 0.00 0.00 19 1016.0
20260510042134 68 328 7.0 14.0 0.00 0.00 0.00 20 1016.0
20260510041134 68 356 3.0 14.0 0.00 0.00 0.00 20 1015.9
20260510040134 69 354 8.0 15.0 0.00 0.00 0.00 20 1015.7
20260510035134 70 349 11.0 15.0 0.00 0.00 0.00 20 1015.4
20260510034134 71 328 7.0 11.0 0.00 0.00 0.00 19 1015.1
20260510032134 70 334 5.0 12.0 0.00 0.00 0.00 20 1014.7
20260510031134 71 328 3.0 12.0 0.00 0.00 0.00 19 1014.4
20260510030134 71 1 7.0 13.0 0.00 0.00 0.00 19 1015.1
20260510025134 72 21 4.0 11.0 0.00 0.00 0.00 19 1014.9
20260510024134 73 15 3.0 12.0 0.00 0.00 0.00 19 1014.7
20260510023134 73 18 9.0 14.0 0.00 0.00 0.00 18 1014.5
20260510022134 74 357 12.0 17.0 0.00 0.00 0.00 18 1014.4
20260510021134 75 341 8.0 16.0 0.00 0.00 0.00 15 1014.2
20260510020134 76 337 8.0 15.0 0.00 0.00 0.00 14 1014.1
20260510015134 77 331 7.0 14.0 0.00 0.00 0.00 14 1014.1
20260510014134 78 338 7.0 16.0 0.00 0.00 0.00 14 1014.0
20260510013135 79 334 5.0 13.0 0.00 0.00 0.00 14 1013.9
20260510012134 79 337 7.0 17.0 0.00 0.00 0.00 14 1014.0
20260510011134 80 334 7.0 18.0 0.00 0.00 0.00 13 1013.8
20260510010134 81 333 7.0 19.0 0.00 0.00 0.00 13 1013.8
20260510005134 82 353 11.0 19.0 0.00 0.00 0.00 14 1013.8
20260510003135 83 342 5.0 18.0 0.00 0.00 0.00 14 1013.7
20260510002134 83 343 12.0 22.0 0.00 0.00 0.00 13 1013.7
20260510001134 83 340 8.0 22.0 0.00 0.00 0.00 13 1013.6
20260510000134 83 354 14.0 19.0 0.00 0.00 0.00 13 1013.5
20260509235134 83 341 14.0 27.0 0.00 0.00 0.00 13 1013.4
20260509234135 84 345 15.0 23.0 0.00 0.00 0.00 13 1013.5
20260509233136 84 341 14.0 22.0 0.00 0.00 0.00 12 1013.4
20260509232135 83 335 11.0 25.0 0.00 0.00 0.00 14 1013.5
20260509231135 84 350 12.0 21.0 0.00 0.00 0.00 13 1013.7
20260509230135 84 259 8.0 23.0 0.00 0.00 0.00 14 1013.7
20260509225134 82 357 8.0 21.0 0.00 0.00 0.00 15 1013.7
20260509224134 82 341 12.0 21.0 0.00 0.00 0.00 14 1013.7
20260509223135 82 339 10.0 28.0 0.00 0.00 0.00 15 1014.0
20260509222135 82 327 12.0 19.0 0.00 0.00 0.00 15 1014.0
20260509221135 83 340 12.0 19.0 0.00 0.00 0.00 15 1014.2
20260509220134 82 281 8.0 26.0 0.00 0.00 0.00 14 1014.3
20260509215135 84 323 4.0 20.0 0.00 0.00 0.00 14 1014.3
20260509214135 85 344 8.0 15.0 0.00 0.00 0.00 14 1014.5
20260509213134 86 177 1.0 14.0 0.00 0.00 0.00 15 1014.6
20260509212136 85 352 11.0 22.0 0.00 0.00 0.00 14 1014.6